{"data":{"norad_id":68585,"epoch":"2026-05-25T04:00:03.998880Z","epoch_age_seconds":56647,"freshness":"FRESH","line1":"1 68585U 26072N   26145.16671295  .00009598  00000+0  56999-3 0  9995","line2":"2 68585  51.8825 289.5711 0008017 294.9526 268.5250 15.11895623  5395","mean_motion":15.11895623,"eccentricity":0.0008017,"inclination_deg":51.8825,"raan_deg":289.5711,"arg_perigee_deg":294.9526,"mean_anomaly_deg":268.525,"bstar":0.00056999,"rev_number":539,"period_min":95.244670206972,"perigee_km":524.88071604884,"apogee_km":535.9578952293,"semimajor_km":6908.5563056391,"source":"CELESTRAK","updated_at":"2026-05-25T13:38:07.950617Z"}}